Вернуться в каталог

STARLINK-32162

АктивенСвязьVLEO
NORAD 60597·PAYLOAD·🇺🇸 United States

Запущен Aug 20, 2024 с Cape Canaveral Space Force Station

Loading…

Ближайшие Пролёты (ближайшие 24 часа)

TLE

СвежийSource: CelesTrak SupGP

Эпоха: Sep 15, 2026, 03:02 UTC

1 60597C 24150Q   26258.12687500  .00028131  00000+0  83114-3 0  2583
2 60597  53.1594 146.7794 0001286  85.4767 137.5505 15.34376007    11

Отслеживайте STARLINK-32162 в реальном времени с AllMySat

Download on the App Store